Tracking 35275 objects as of 8-Sep-2026
HD Live streaming from Space Station
objects crossing your sky now

KUIPER-00140

Track KUIPER-00140 now!
10-day predictions
KUIPER-00140 is classified as:


NORAD ID: 65965
Int'l Code: 2025-228U
Launch date: October 14, 2025
Source: United States (US)
Launch site: AIR FORCE EASTERN TEST RANGE (AFETR)
Your satellite tracking list
Your tracking list is empty




NASA's NSSDC Master Catalog

Two Line Element Set (TLE):
1 65965U 25228U   26250.33300374  .00000373  00000-0  77896-4 0  9992
2 65965  51.8994 262.4306 0000735  65.8126 294.2913 14.79926040 50338
Source of the keplerian elements: AFSPC